Location: Majestic Skies Ranch
(34.0000°N, 105.9300°W)
Time: 19:56:12
(UTC-06:00)

ISS - Visible Passes

Search period start: 28 May 2016 00:00
Search period end: 07 June 2016 00:00
Orbit: 402 x 404 km, 51.6° (Epoch: 28 May)

Date Brightness Start Highest point End Pass type
(mag) Time Alt. Az. Time Alt. Az. Time Alt. Az.
28 May -1.4 04:14:37 10° NNW 04:17:37 32° NE 04:20:35 10° ESE visible
28 May -3.4 20:51:03 10° SW 20:54:18 86° SE 20:57:34 10° NE visible
28 May 0.2 22:29:51 10° NW 22:31:08 12° NNW 22:32:26 10° N visible
29 May -0.4 03:22:20 10° NNW 03:24:43 18° NNE 03:27:05 10° E visible
29 May -2.9 04:58:12 10° WNW 05:01:15 38° SW 05:04:18 10° SSE visible
29 May -0.3 21:35:43 10° W 21:38:09 19° NNW 21:40:35 10° NNE visible
30 May 0.2 02:30:33 10° N 02:31:43 11° NNE 02:32:52 10° NE visible
30 May -3.5 04:05:18 10° NW 04:08:35 90° ESE 04:11:49 10° SE visible
30 May -1.4 20:42:14 10° WSW 20:45:15 34° NW 20:48:17 10° NNE visible
31 May 0.4 21:28:50 10° NW 21:29:23 10° NNW 21:29:55 10° NNW visible
01 Jun -0.2 20:34:10 10° WNW 20:36:21 16° NNW 20:38:32 10° N visible
